sat.trackr.live / text

‹ back to catalog

STARLINK-11545 [DTC]

NORAD 63016 · 2025-032M

PAYLOAD ACTIVE UNKNOWN

§ Identity

Operator
Country
US
Launch date
2025-02-15
Launch site
AFETR
Launch vehicle
Mass (kg)
RCS (m²)

Purposes: comms

External: N2YO · Heavens-Above · Gunter

§ Orbital elements

Epoch: 2026-05-24T23:29:19.998816Z

Period
91.67 min
Inclination
42.9978°
Eccentricity
0.0001813
Mean motion
15.70833969 rev/d
Perigee alt
355.3 km
Apogee alt
357.7 km
Semi-major
6,734.6 km
B*
1.5711e-3
RAAN
95.3456°
Arg perigee
231.6594°
Mean anomaly
128.4111°
Rev number
7,422

§ Raw data

STARLINK-11545 [DTC]1 63016U 25032M   26144.97870369  .00206167  00000+0  15711-2 0  99922 63016  42.9978  95.3456 0001813 231.6594 128.4111 15.70833969 74226

JSON: /api/v1/satellites/63016 · /tle

For live sub-satellite position, see the globe view (requires WebGL).

§ Visibility from observer

Set your observer location to see the next 7 days of passes ≥ 10°. The values pass through the URL so the page stays shareable.

No JS? Fill the form by hand. The geolocation button needs JavaScript.